Flag for Australia Weather past 2 weeks in Mount Isa, Queensland, Australia

Now
73 °F

Clear.


Feels Like: 75 °F
Forecast: 57 / 80 °F
Wind: 9 mph from Southeast

Location: Mount Isa Amo

Current Time: Aug 28, 2014 at 7:37:33 PM

Latest Report: Aug 28, 2014 at 7:00 PM


Visibility: N/A

Pressure: 30.07 "Hg

Humidity: 16%

Dew point: 25 °F

Location of Mount IsaLocation

Historic Weather in Mount Isa — Graph

°F

Mount Isa temperature yesterday

Maximum temperature yesterday: 79 °F (at 2:30 PM)
Minimum temperature yesterday: 41 °F (at 4:30 AM)
Average temperature yesterday: 64 °F

Past Weeks' High & Low Weather Summary

 TemperatureHumidityPressure
High82 °F (Aug 22, 4:30 PM)100% (Aug 18, 4:00 PM)30.21 "Hg (Aug 18, 4:00 PM)
Low37 °F (Aug 16, 7:00 AM)5% (Aug 27, 4:30 PM)29.98 "Hg (Aug 16, 3:00 PM)
Average65 °F26%30.10 "Hg
* Reported Aug 13 6:00 PM — Aug 28 6:00 PM, Mount Isa, Weather by CustomWeather, © 2014

Note: Actual official high and low records may vary slightly from our data, if they occured in-between our weather recording intervals... More about our weather records

Advertising

Mount Isa weather history for previous 24 hours

 ConditionsComfort  
Time TempWeatherWind HumidityBarometerVisibility
6:00 PM
Aug 28
77 °FClear.9 mph12%30.07 "HgN/A
5:30 PM79 °FSunny.12 mph12%30.07 "HgN/A
5:00 PM81 °FSunny.9 mph10%30.07 "HgN/A
4:30 PM81 °FSunny.8 mph12%30.04 "HgN/A
4:00 PM81 °FSunny.12 mph11%30.04 "HgN/A
3:30 PM81 °FSunny.13 mph11%30.04 "HgN/A
3:00 PM81 °FSunny.15 mph14%30.07 "Hg10 mi
2:30 PM79 °FSunny.16 mph13%30.07 "Hg10 mi
2:00 PM79 °FSunny.13 mph16%30.07 "Hg10 mi
1:30 PM79 °FSunny.12 mph16%30.09 "HgN/A
1:00 PM77 °FSunny.13 mph18%30.09 "Hg10 mi
12:30 PM77 °FSunny.14 mph17%30.12 "HgN/A
12:00 PM75 °FSunny.15 mph19%30.12 "HgN/A
11:30 AM73 °FSunny.15 mph22%30.15 "HgN/A
11:00 AM73 °FSunny.16 mph22%30.15 "Hg10 mi
10:30 AM72 °FSunny.16 mph23%30.15 "HgN/A
10:00 AM70 °FSunny.18 mph27%30.15 "Hg10 mi
9:30 AM70 °FSunny.16 mph27%30.15 "HgN/A
9:00 AM66 °FSunny.13 mph30%30.15 "Hg10 mi
8:30 AM64 °FSunny.12 mph30%30.15 "HgN/A
8:00 AM61 °FSunny.6 mph31%30.15 "Hg10 mi
7:30 AM54 °FSunny.3 mph41%30.15 "HgN/A
7:00 AM46 °FSunny.5 mph50%30.12 "Hg10 mi
6:00 AM54 °FSunny.7 mph41%30.09 "Hg10 mi
5:30 AM57 °FClear.9 mph31%30.09 "HgN/A
5:00 AM48 °FClear.9 mph46%30.09 "HgN/A
3:30 AM55 °FClear.5 mph36%30.09 "HgN/A
3:00 AM52 °FClear.6 mph38%30.09 "HgN/A
2:00 AM59 °FClear.7 mph23%30.09 "HgN/A
12:30 AM61 °FClear.8 mph20%30.12 "HgN/A
12:00 AM61 °FClear.8 mph22%30.12 "HgN/A
11:30 PM
Aug 27
59 °FClear.8 mph23%30.15 "HgN/A
11:00 PM55 °FClear.7 mph38%30.15 "HgN/A
10:30 PM63 °FClear.7 mph22%30.15 "HgN/A
10:00 PM64 °FClear.7 mph18%30.15 "HgN/A
9:30 PM64 °FClear.7 mph18%30.12 "HgN/A
9:00 PM63 °FClear.6 mph25%30.12 "HgN/A
8:30 PM68 °FClear.8 mph14%30.12 "HgN/A
8:00 PM70 °FClear.9 mph13%30.09 "HgN/A
7:30 PM70 °FClear.8 mph12%30.09 "HgN/A
7:00 PM72 °FClear.12 mph11%30.07 "HgN/A
Weather by CustomWeather, © 2014

See weather overviewHow to use our weather pages